Weather in Kamenka

Russia / Arkhangel'skaya Oblast'     65°53′14″N   44°07′02″E
temp.,
°C
wind,
m/s
gust,
m/s
humid.,
%
clouds,
%
prec.,
mm/h
press.,
hPa
HPBL,
m
23 september, thu
thu2300:00+1s46810 0.0 102688
03:00+1s47855 0.0 102599
06:00+1sse47925 0.0 1024116
09:00+6sse510810 0.0 1023379
12:00+10s610630 0.0 1021715
15:00+11s69594 0.0 1019837
18:00+7sse59755 0.0 1018196
21:00+6sse5118335 0.0 1018231
24 september, fri
fri2400:00+6sse5108642 0.0 1017237
03:00+7sse48871 0.0 1017230
06:00+4se489681 0.0 1017146
09:00+6ese4986100 0.0 1016284
12:00+10se61171100 0.0 1015527
15:00+12se61366100 0.0 10131128
18:00+10se71376100 0.0 1013847
21:00+9se71388100 0.3 1013751
25 september, sat
sat2500:00+8se61289100 0.4 1012641
03:00+8se61291100 0.6 1011556
06:00+8se51193100 0.1 1010498
09:00+8sse51095100 0.7 1010514
12:00+9sse598990 0.1 1011585
15:00+9sse5988100 0.2 1011510
18:00+8se5994100 0.0 1012394
21:00+8se489088 0.0 1012312
26 september, sun
sun2600:00+7sse469599 0.0 1013243
03:00+8se3488100 0.0 1014124
06:00+8se2382100 0.0 101548
09:00+8se2389100 0.1 1016218
12:00+8e2297100 1.1 1018127
15:00+8ese2397100 1.6 1020124
18:00+7sse2297100 0.1 102250
21:00+7se2296100 0.1 102330
27 september, mon
mon2700:00+7s1196100 0.0 102511
03:00+7sse0196100 0.0 102710
06:00+6ssw119694 0.0 102811
09:00+8s0188100 0.0 103053
12:00+10sw117679 0.0 1031384
15:00+11sw1272100 0.0 1032600
18:00+7ssw228878 0.0 103212
21:00+6sw229187 0.0 103320